Regional Weather Roundup
Issued by NWS Grand Forks, ND

Home | Current Version | Previous Version | Graphics & Text | Print | Product List | Glossary On
Versions: 1 2 3 4 5 6 7 8 9 10 11 12 13 14 15 16 17 18 19 20 21 22 23 24 25 26 27 28 29 30 31 32 33 34 35 36 37 38 39 40 41 42 43 44 45 46 47 48 49 50
000
ASUS43 KFGF 231310
RWRFGF
PRAIRIE TO PINES  WEATHER ROUNDUP
NATIONAL WEATHER SERVICE EASTERN NORTH DAKOTA/GRAND FORKS ND
800 AM CDT THU MAR 23 2017

 **SATELLITE DATA USED TO AUGMENT SKY COVER AT AUTOMATED STATIONS**
 *****  WEATHER ACROSS EASTERN NORTH DAKOTA  *****

CITY           SKY/WX    TMP DP  RH WIND       PRES   REMARKS
GRAND FORKS    CLOUDY    34  22  61 S14       29.87S WCI  25
GRAND FRKS AFB FAIR      33  26  75 S16       29.86F WCI  22
DEVILS LAKE    FAIR      31  27  85 S10       29.81S WCI  22
FARGO          FAIR      37  26  64 S21G32    29.89S
WAHPETON ARPT  FAIR      34  27  75 SE16      29.93F WCI  23
$$

 ***** WEATHER ACROSS CENTRAL AND WESTERN NORTH DAKOTA  *****

CITY           SKY/WX    TMP DP  RH WIND       PRES   REMARKS
BISMARCK       LGT RAIN  34  31  88 E8        29.75F
MINOT          FAIR      35  29  78 S7        29.75S
JAMESTOWN      MOCLDY    32  28  85 S9        29.80F WCI  24
MINOT AFB      FAIR      31  28  92 S5        29.74S
GARRISON         N/A     31  29  92 E7        29.74F WCI  24
WILLISTON      FAIR      32  31  96 CALM      29.74F
DICKINSON      CLOUDY    37  32  82 CALM      29.68F
HETTINGER      LGT RAIN  36  34  92 NW8       29.71S FOG
$$

 *****  OTHER AIRPORT OBSERVATIONS IN OUR AREA  *****

CITY           SKY/WX    TMP DP  RH WIND       PRES   REMARKS
WALHALLA       NOT AVBL
GRAFTON AIRPOR FAIR      32  28  86 S12       29.88S WCI  23
VALLEY CITY AR FAIR      30  30 100 S13       29.85F WCI  20
CANDO          NOT AVBL
CAVALIER APRT  NOT AVBL
GWINNER        SUNNY     34  28  80 MISG      29.85F
SHEYENNE NWR     N/A     35  26  70 S12       29.95S
ROLLA          FAIR      25  25 100 SW13      29.77R WCI  13
 ***** THE ABOVE OBSERVATIONS ARE NON NWS ARE NOT QUALITY
       CONTROLLED AND MAY MIS-REPORT RAIN FOR SNOW...
$$

  *****  WEATHER ACROSS NORTHERN MINNESOTA  *****

CITY           SKY/WX    TMP DP  RH WIND       PRES   REMARKS
FLAG ISLAND    FAIR      28  21  74 SE16      29.90S WCI  17
WARROAD        FAIR      32  23  69 S10       29.90S WCI  24
ROSEAU         FAIR      34  25  69 S13       29.88S WCI  25
HALLOCK        FAIR      34  27  75 S16       29.87R WCI  23
THF RVR FALLS    N/A     35  23  61 S13       29.90
BAUDETTE       FAIR      31  19  61 S12       29.92F WCI  22
WASKISH        FAIR      32  21  64 S10G21    29.94F WCI  24
CROOKSTON      FAIR      34  25  69 S14G20    29.90S WCI  24
GREENBUSH NDAW   N/A     34  25  69 S12         N/A
$$
  *****  WEATHER ACROSS CENTRAL AND WEST MINNESOTA  *****

CITY           SKY/WX    TMP DP  RH WIND       PRES   REMARKS
FOSSTON        FAIR      34  21  60 S14       29.91S WCI  24
BEMIDJI        FAIR      33  20  59 S10G17    29.95S WCI  25
PARK RAPIDS    FAIR      35  20  54 S18G24    29.96F WCI  24
ELBOW LAKE     FAIR      35  24  66 E21       29.96S WCI  23
WADENA         FAIR      34  21  60 S14G23    29.98S WCI  24
DETROIT LAKES  FAIR      34  25  69 S15       29.94F WCI  24
MOORHEAD       FAIR      36  25  64 S21G28    29.91F
FERGUS FALLS   FAIR      36  25  64 S20G25    29.98S
MORRIS MN      MOCLDY    36  25  64 SE18G24   29.95F
STAPLES        CLOUDY    36  21  55 S15       30.00F
$$
  *****  WEATHER ELSEWHERE ACROSS MINNESOTA  *****

CITY           SKY/WX    TMP DP  RH WIND       PRES   REMARKS
DULUTH         CLOUDY    29  27  92 SE13      30.11F WCI  19
INTRNTL FALLS  FAIR      32  19  58 S9        29.97F WCI  24
ELY            CLOUDY    28  23  80 S9        30.07F WCI  20
CLOQUET        CLOUDY    30  23  74 SE7       30.10F WCI  23
WHEATON        FAIR      36  27  69 SE20      29.94F
BRAINERD       CLOUDY    34  20  56 S10       30.03F
HIBBING        CLOUDY    29  22  75 S13G22    30.05F WCI  19
ALEXANDRIA     CLOUDY    36  23  59 S18       29.99F
SAINT CLOUD    CLOUDY    36  23  59 SE15      30.07F
MINNEAPOLIS    CLOUDY    37  20  50 S13       30.13F
$$

  *****  WEATHER ACROSS SOUTH DAKOTA  *****

CITY           SKY/WX    TMP DP  RH WIND       PRES   REMARKS
SIOUX FALLS    MOCLDY    39  25  57 SE16      29.93F
BROOKINGS      FAIR      36  25  64 SE15      29.91F
WATERTOWN      FAIR      35  26  69 S13       29.88F
HURON          FAIR      40  29  64 S21G30    29.84S
SISSETON         N/A     34  29  82 S14       29.88F WCI  25
ABERDEEN       FAIR      37  27  67 S17       29.80F
MITCHELL       FAIR      41  29  62 SE16      29.87S
PIERRE         FAIR      40  31  70 SE13      29.73F
MOBRIDGE       FAIR      42  30  62 SE8       29.71S
RAPID CITY     FAIR      47  40  76 N13       29.66S
$$

  *****  SOME WEATHER IN NEARBY STATES *****

CITY           SKY/WX    TMP DP  RH WIND       PRES   REMARKS
GLASGOW MT     FAIR      34  31  88 W6        29.74R
GREAT FALLS MT MOCLDY    34  27  75 SW13      29.83R WCI  25
CHEYENNE WY    FAIR      38  28  67 NW8       29.73F
SCOTTSBLUFF NE FAIR      34  30  85 E8        29.69S
OMAHA NE       CLOUDY    47  27  45 SE20      29.99F
DES MOINES IA  CLOUDY    42  20  41 SE15      30.13S
DAVENPORT IA   CLOUDY    35  23  61 SE13      30.30F
CHICAGO IL     CLOUDY    34  18  52 SE16      30.40F WCI  24
EAU CLAIRE WI  CLOUDY    33  20  58 SE14      30.21F WCI  23
LA CROSSE WI   CLOUDY    35  21  56 SE16      30.26F
$$

  *****  SOME NATIONAL WEATHER *****

CITY           SKY/WX    TMP DP  RH WIND       PRES   REMARKS
LA GUARDIA NY  FAIR      29   5  36 NW7       30.60R WCI  22
RALEIGH NC     FAIR      39  12  33 NE14      30.58R
ATLANTA GA     PTSUNNY   51  35  54 E14       30.39R
NEW ORLEANS LA FAIR      67  61  81 E7        30.19R
OKLAHOMA CITY  MOCLDY    56  53  90 S21G30    29.96S
ALBUQUERQUE NM FAIR      54  16  22 S10       29.86R
SALT LAKE CITY LGT RAIN  39  37  92 E8        29.74F
LOS ANGELES CA FAIR      56  40  55 NW10      30.03R
BOISE ID       FAIR      37  32  82 NW9       29.96R
SEATTLE WA     FAIR      40  37  89 S8        30.08R
$$

*** WEATHER ACROSS MANITOBA...SASKATCHEWAN AND ONTARIO ***
                ***ONTARIO***

CITY           SKY/WX    TMP DP  RH WIND       PRES   REMARKS
GERALDTON      CLOUDY    23  18  80 S5        30.21F WCI  17
THUNDER BAY    FLURRIES  32  23  69 S6        30.21F
SIOUX LOOKOUT  CLOUDY    27  21  80 S13G20    29.97F WCI  16
TORONTO        MOSUNNY   23  12  63 S6        30.59R WCI  16
BIG TROUT LK   FLURRIES  21  18  86 S14       29.89F WCI   8
PICKLE LAKE    LGT SNOW  23  19  86 S14       29.95F DRFTSNOWWCI  11
DRYDEN         CLOUDY    28  21  74 S13G21    29.94F WCI  18
KENORA         MOCLDY    30  19  64 S14       29.89F WCI  20
$$
                *** MANITOBA***

CITY           SKY/WX    TMP DP  RH WIND       PRES   REMARKS
BRANDON        MOCLDY    21  19  93 NW5       29.74F WCI  15
DAUPHIN        CLEAR     34  28  80 W18G24    29.67R WCI  23
ISLAND LAKE    CLOUDY    27  23  86 SE12G20   29.68F WCI  16
PILOT MOUND      N/A     27  25  93 SW10        N/A  WCI  17
THE PAS        FLURRIES  23  19  86 W17G23    29.62R WCI   9
THOMPSON       LGT SNOW  23  21  93 NE6       29.62F VSB 1   WCI  16
WINNIPEG       MOCLDY    30  25  80 S21       29.82F WCI  17
LYNN LAKE      LGT SNOW  18  16  93 N7        29.67R WCI   8
CHURCHILL      CLOUDY    12   5  73 S5        29.79F WCI   4
GILLAM         FLURRIES  21  19  93 SE3       29.73F
$$
                ***SASKATCHEWAN***

CITY           SKY/WX    TMP DP  RH WIND       PRES   REMARKS
ESTEVAN        MOCLDY    27  25  93 N3        29.74R
KINDERSLEY     PTCLDY    27  25  93 NE7       29.74F FOG     WCI  19
LLOYDMINSTER   FOG       21  21 100 N7        29.76R VSB 1/8 WCI  13
PRINCE ALBERT  MOCLDY    23  19  86 NW9G17    29.75R WCI  13
REGINA         CLOUDY    28  28 100 NW12      29.77R WCI  18
YORKTON        CLEAR     28  27  93 NW8       29.73R WCI  20
N. BATTLEFORD  FRZ RAIN  19 N/A N/A NW8       29.79R VSB 3/8 WCI   9
LA RONGE       MOCLDY    18  14  86 W8        29.73R WCI   7
SASKATOON      PTCLDY    23  21  93 W6        29.78S WCI  16
SWIFT CURRENT  MOCLDY    28  28 100 S3        29.73S FOG
$$
NOTE: THESE ARE AUTOMATED STATIONS WITH LIMITED QUALITY CONTROL
      "FAIR" INDICATES FEW OR NO CLOUDS BELOW 12,000 FEET WITH NO
      SIGNIFICANT WEATHER AND/OR OBSTRUCTIONS TO VISIBILITY.
      SKY/WX - SKY CONDITION AND SIGNIFICANT WEATHER.
      TMP - AIR TEMPERATURE.    DP   - DEWPOINT TEMPERATURE.
      RH  - RELATIVE HUMIDITY.  PRES - PRESSURE.
      HX  - HEAT INDEX.         WCI  - WIND CHILL INDEX.
$



USA.gov is the U.S. government's official web portal to all federal, state and local government web resources and services.